Regional Weather Roundup
Issued by NWS Goodland, KS

Home | Current Version | Previous Version | Text Only | Print | Product List | Glossary On
Versions: 1 2 3 4 5 6 7 8 9 10 11 12 13 14 15 16 17 18 19 20 21 22 23 24 25 26 27 28 29 30 31 32 33 34 35 36 37 38 39 40 41 42 43 44 45 46 47 48 49 50
000
ASUS43 KGLD 252208
RWRGLD

GOODLAND FORECAST AREA HOURLY WEATHER ROUNDUP
NATIONAL WEATHER SERVICE GOODLAND KS
400 PM MDT SAT APR 25 2015

...OFFICIAL OBSERVATIONS...

CITY           SKY/WX    TMP DP  RH WIND       PRES   REMARKS
GOODLAND KS    SUNNY     71  41  33 VRB3      29.70S
HILL CITY KS   MOSUNNY   66  55  67 NE14      29.70R
IMPERIAL NEB   SUNNY     70  44  39 E9        29.68S
MCCOOK NEB     MOSUNNY   72  47  40 NE12G17   29.68S
AKRON CO       PTSUNNY   69  35  28 E10G22    29.69F
BURLINGTON CO  MOSUNNY   70  37  29 E9        29.71F
LIMON CO       PTSUNNY   66  23  19 S16G26    29.70F
$$

...UNOFFICIAL OBSERVATIONS...

CITY           SKY/WX    TMP DP  RH WIND       PRES   REMARKS
COLBY KS       MOSUNNY   72  48  43 NE9       29.71R
GOVE KS          N/A     71  32  23 MISG        N/A
LENORA KS        N/A     65  32  29 MISG        N/A
NORTON KS      MOSUNNY   63  48  59 NE16      29.70R
SHARON SPRINGS   N/A     72  45  37 CALM        N/A
TRIBUNE KS     MOSUNNY   73  50  43 NE7       29.71S
KIT CARSON CO    N/A     72  34  25 MISG        N/A
YUMA CO          N/A     68  35  29 E12         N/A
$$



USA.gov is the U.S. government's official web portal to all federal, state and local government web resources and services.